Year,Month,Day,Hour,Minute,Value (Times are PST for temperature in C)
2014,04,30,00,00,11.90
2014,04,30,00,01,11.90
2014,04,30,00,02,11.90
2014,04,30,00,03,11.90
2014,04,30,00,04,11.90
2014,04,30,00,05,11.90
2014,04,30,00,06,11.90
2014,04,30,00,07,11.90
2014,04,30,00,08,11.90
2014,04,30,00,09,11.90
2014,04,30,00,10,11.90
2014,04,30,00,11,11.90
2014,04,30,00,12,11.90
2014,04,30,00,13,11.90
2014,04,30,00,14,11.90
2014,04,30,00,15,11.90
2014,04,30,00,16,11.90
2014,04,30,00,17,11.90
2014,04,30,00,18,11.90
2014,04,30,00,19,11.90
2014,04,30,00,20,11.90
2014,04,30,00,21,11.90
2014,04,30,00,22,11.90
2014,04,30,00,23,11.90
2014,04,30,00,24,11.90
2014,04,30,00,25,12.00
2014,04,30,00,26,12.00
2014,04,30,00,27,12.10
2014,04,30,00,28,12.10
2014,04,30,00,29,12.10
2014,04,30,00,30,12.10
2014,04,30,00,31,12.10
2014,04,30,00,32,12.10
2014,04,30,00,33,12.10
2014,04,30,00,34,12.10
2014,04,30,00,35,12.10
2014,04,30,00,36,12.10
2014,04,30,00,37,12.10
2014,04,30,00,38,12.10
2014,04,30,00,39,12.10
2014,04,30,00,40,12.10
2014,04,30,00,41,12.10
2014,04,30,00,42,12.10
2014,04,30,00,43,12.10
2014,04,30,00,44,12.10
2014,04,30,00,45,12.10
2014,04,30,00,46,12.10
2014,04,30,00,47,12.10
2014,04,30,00,48,12.10
2014,04,30,00,49,12.10
2014,04,30,00,50,12.10
2014,04,30,00,51,12.00
2014,04,30,00,52,12.00
2014,04,30,00,53,12.00
2014,04,30,00,54,12.00
2014,04,30,00,55,12.00
2014,04,30,00,56,12.00
2014,04,30,00,57,12.00
2014,04,30,00,58,12.00
2014,04,30,00,59,11.90
2014,04,30,01,00,11.90
2014,04,30,01,01,11.90
2014,04,30,01,02,11.90
2014,04,30,01,03,11.90
2014,04,30,01,04,11.90
2014,04,30,01,05,11.90
2014,04,30,01,06,11.90
2014,04,30,01,07,11.90
2014,04,30,01,08,11.90
2014,04,30,01,09,11.90
2014,04,30,01,10,11.90
2014,04,30,01,11,11.90
2014,04,30,01,12,11.90
2014,04,30,01,13,11.90
2014,04,30,01,14,11.90
2014,04,30,01,15,11.90
2014,04,30,01,16,11.90
2014,04,30,01,17,11.90
2014,04,30,01,18,11.90
2014,04,30,01,19,11.90
2014,04,30,01,20,11.90
2014,04,30,01,21,11.80
2014,04,30,01,22,11.80
2014,04,30,01,23,11.80
2014,04,30,01,24,11.80
2014,04,30,01,25,11.80
2014,04,30,01,26,11.80
2014,04,30,01,27,11.80
2014,04,30,01,28,11.80
2014,04,30,01,29,11.80
2014,04,30,01,30,11.80
2014,04,30,01,31,11.80
2014,04,30,01,32,11.80
2014,04,30,01,33,11.80
2014,04,30,01,34,11.80
2014,04,30,01,35,11.80
2014,04,30,01,36,11.80
2014,04,30,01,37,11.80
2014,04,30,01,38,11.70
2014,04,30,01,39,11.70
2014,04,30,01,40,11.70
2014,04,30,01,41,11.70
2014,04,30,01,42,11.60
2014,04,30,01,43,11.60
2014,04,30,01,44,11.60
2014,04,30,01,45,11.60
2014,04,30,01,46,11.60
2014,04,30,01,47,11.60
2014,04,30,01,48,11.60
2014,04,30,01,49,11.60
2014,04,30,01,50,11.60
2014,04,30,01,51,11.60
2014,04,30,01,52,11.60
2014,04,30,01,53,11.60
2014,04,30,01,54,11.60
2014,04,30,01,55,11.60
2014,04,30,01,56,11.60
2014,04,30,01,57,11.60
2014,04,30,01,58,11.70
2014,04,30,01,59,11.70
2014,04,30,02,00,11.70
2014,04,30,02,01,11.70
2014,04,30,02,02,11.80
2014,04,30,02,03,11.80
2014,04,30,02,04,11.80
2014,04,30,02,05,11.80
2014,04,30,02,06,11.90
2014,04,30,02,07,11.90
2014,04,30,02,08,11.90
2014,04,30,02,09,11.90
2014,04,30,02,10,11.90
2014,04,30,02,11,11.90
2014,04,30,02,12,11.90
2014,04,30,02,13,11.90
2014,04,30,02,14,11.90
2014,04,30,02,15,12.00
2014,04,30,02,16,12.00
2014,04,30,02,17,12.00
2014,04,30,02,18,12.00
2014,04,30,02,19,12.00
2014,04,30,02,20,12.00
2014,04,30,02,21,12.00
2014,04,30,02,22,12.00
2014,04,30,02,23,11.90
2014,04,30,02,24,11.90
2014,04,30,02,25,11.90
2014,04,30,02,26,11.90
2014,04,30,02,27,11.90
2014,04,30,02,28,11.90
2014,04,30,02,29,11.90
2014,04,30,02,30,11.90
2014,04,30,02,31,11.80
2014,04,30,02,32,11.80
2014,04,30,02,33,11.80
2014,04,30,02,34,11.80
2014,04,30,02,35,11.80
2014,04,30,02,36,11.80
2014,04,30,02,37,11.80
2014,04,30,02,38,11.80
2014,04,30,02,39,11.70
2014,04,30,02,40,11.70
2014,04,30,02,41,11.70
2014,04,30,02,42,11.70
2014,04,30,02,43,11.70
2014,04,30,02,44,11.70
2014,04,30,02,45,11.70
2014,04,30,02,46,11.70
2014,04,30,02,47,11.70
2014,04,30,02,48,11.70
2014,04,30,02,49,11.60
2014,04,30,02,50,11.60
2014,04,30,02,51,11.70
2014,04,30,02,52,11.70
2014,04,30,02,53,11.70
2014,04,30,02,54,11.70
2014,04,30,02,55,11.70
2014,04,30,02,56,11.70
2014,04,30,02,57,11.70
2014,04,30,02,58,11.70
2014,04,30,02,59,11.70
2014,04,30,03,00,11.60
2014,04,30,03,01,11.70
2014,04,30,03,02,11.70
2014,04,30,03,03,11.70
2014,04,30,03,04,11.70
2014,04,30,03,05,11.70
2014,04,30,03,06,11.70
2014,04,30,03,07,11.70
2014,04,30,03,08,11.70
2014,04,30,03,09,11.70
2014,04,30,03,10,11.70
2014,04,30,03,11,11.70
2014,04,30,03,12,11.80
2014,04,30,03,13,11.80
2014,04,30,03,14,11.80
2014,04,30,03,15,11.80
2014,04,30,03,16,11.80
2014,04,30,03,17,11.80
2014,04,30,03,18,11.80
2014,04,30,03,19,11.80
2014,04,30,03,20,11.80
2014,04,30,03,21,11.80
2014,04,30,03,22,11.80
2014,04,30,03,23,11.80
2014,04,30,03,24,11.80
2014,04,30,03,25,11.80
2014,04,30,03,26,11.80
2014,04,30,03,27,11.80
2014,04,30,03,28,11.80
2014,04,30,03,29,11.80
2014,04,30,03,30,11.80
2014,04,30,03,31,11.80
2014,04,30,03,32,11.80
2014,04,30,03,33,11.80
2014,04,30,03,34,11.80
2014,04,30,03,35,11.80
2014,04,30,03,36,11.80
2014,04,30,03,37,11.80
2014,04,30,03,38,11.80
2014,04,30,03,39,11.80
2014,04,30,03,40,11.80
2014,04,30,03,41,11.80
2014,04,30,03,42,11.70
2014,04,30,03,43,11.70
2014,04,30,03,44,11.70
2014,04,30,03,45,11.70
2014,04,30,03,46,11.70
2014,04,30,03,47,11.70
2014,04,30,03,48,11.60
2014,04,30,03,49,11.60
2014,04,30,03,50,11.60
2014,04,30,03,51,11.60
2014,04,30,03,52,11.60
2014,04,30,03,53,11.60
2014,04,30,03,54,11.60
2014,04,30,03,55,11.60
2014,04,30,03,56,11.60
2014,04,30,03,57,11.60
2014,04,30,03,58,11.60
2014,04,30,03,59,11.60
2014,04,30,04,00,11.60
2014,04,30,04,01,11.60
2014,04,30,04,02,11.60
2014,04,30,04,03,11.60
2014,04,30,04,04,11.60
2014,04,30,04,05,11.60
2014,04,30,04,06,11.60
2014,04,30,04,07,11.60
2014,04,30,04,08,11.60
2014,04,30,04,09,11.60
2014,04,30,04,10,11.60
2014,04,30,04,11,11.60
2014,04,30,04,12,11.60
2014,04,30,04,13,11.60
2014,04,30,04,14,11.60
2014,04,30,04,15,11.60
2014,04,30,04,16,11.60
2014,04,30,04,17,11.60
2014,04,30,04,18,11.50
2014,04,30,04,19,11.40
2014,04,30,04,20,11.40
2014,04,30,04,21,11.40
2014,04,30,04,22,11.40
2014,04,30,04,23,11.40
2014,04,30,04,24,11.40
2014,04,30,04,25,11.30
2014,04,30,04,26,11.30
2014,04,30,04,27,11.30
2014,04,30,04,28,11.20
2014,04,30,04,29,11.20
2014,04,30,04,30,11.20
2014,04,30,04,31,11.20
2014,04,30,04,32,11.10
2014,04,30,04,33,11.10
2014,04,30,04,34,11.10
2014,04,30,04,35,11.10
2014,04,30,04,36,11.00
2014,04,30,04,37,10.90
2014,04,30,04,38,10.90
2014,04,30,04,39,10.90
2014,04,30,04,40,10.90
2014,04,30,04,41,10.90
2014,04,30,04,42,10.90
2014,04,30,04,43,10.90
2014,04,30,04,44,10.90
2014,04,30,04,45,10.90
2014,04,30,04,46,10.90
2014,04,30,04,47,10.80
2014,04,30,04,48,10.80
2014,04,30,04,49,10.80
2014,04,30,04,50,10.80
2014,04,30,04,51,10.80
2014,04,30,04,52,10.80
2014,04,30,04,53,10.80
2014,04,30,04,54,10.70
2014,04,30,04,55,10.70
2014,04,30,04,56,10.70
2014,04,30,04,57,10.70
2014,04,30,04,58,10.70
2014,04,30,04,59,10.70
2014,04,30,05,00,10.70
2014,04,30,05,01,10.60
2014,04,30,05,02,10.60
2014,04,30,05,03,10.60
2014,04,30,05,04,10.60
2014,04,30,05,05,10.60
2014,04,30,05,06,10.60
2014,04,30,05,07,10.60
2014,04,30,05,08,10.60
2014,04,30,05,09,10.60
2014,04,30,05,10,10.60
2014,04,30,05,11,10.60
2014,04,30,05,12,10.60
2014,04,30,05,13,10.60
2014,04,30,05,14,10.60
2014,04,30,05,15,10.60
2014,04,30,05,16,10.60
2014,04,30,05,17,10.60
2014,04,30,05,18,10.60
2014,04,30,05,19,10.60
2014,04,30,05,20,10.60
2014,04,30,05,21,10.60
2014,04,30,05,22,10.60
2014,04,30,05,23,10.60
2014,04,30,05,24,10.60
2014,04,30,05,25,10.60
2014,04,30,05,26,10.60
2014,04,30,05,27,10.60
2014,04,30,05,28,10.60
2014,04,30,05,29,10.60
2014,04,30,05,30,10.60
2014,04,30,05,31,10.60
2014,04,30,05,32,10.60
2014,04,30,05,33,10.60
2014,04,30,05,34,10.60
2014,04,30,05,35,10.60
2014,04,30,05,36,10.60
2014,04,30,05,37,10.60
2014,04,30,05,38,10.60
2014,04,30,05,39,10.60
2014,04,30,05,40,10.60
2014,04,30,05,41,10.60
2014,04,30,05,42,10.60
2014,04,30,05,43,10.60
2014,04,30,05,44,10.60
2014,04,30,05,45,10.70
2014,04,30,05,46,10.70
2014,04,30,05,47,10.70
2014,04,30,05,48,10.70
2014,04,30,05,49,10.70
2014,04,30,05,50,10.70
2014,04,30,05,51,10.70
2014,04,30,05,52,10.70
2014,04,30,05,53,10.70
2014,04,30,05,54,10.70
2014,04,30,05,55,10.80
2014,04,30,05,56,10.80
2014,04,30,05,57,10.80
2014,04,30,05,58,10.70
2014,04,30,05,59,10.70
2014,04,30,06,00,10.70
2014,04,30,06,01,10.70
2014,04,30,06,02,10.70
2014,04,30,06,03,10.70
2014,04,30,06,04,10.70
2014,04,30,06,05,10.70
2014,04,30,06,06,10.70
2014,04,30,06,07,10.60
2014,04,30,06,08,10.60
2014,04,30,06,09,10.60
2014,04,30,06,10,10.60
2014,04,30,06,11,10.60
2014,04,30,06,12,10.60
2014,04,30,06,13,10.60
2014,04,30,06,14,10.60
2014,04,30,06,15,10.60
2014,04,30,06,16,10.60
2014,04,30,06,17,10.60
2014,04,30,06,18,10.60
2014,04,30,06,19,10.60
2014,04,30,06,20,10.60
2014,04,30,06,21,10.60
2014,04,30,06,22,10.60
2014,04,30,06,23,10.60
2014,04,30,06,24,10.60
2014,04,30,06,25,10.60
2014,04,30,06,26,10.60
2014,04,30,06,27,10.60
2014,04,30,06,28,10.60
2014,04,30,06,29,10.60
2014,04,30,06,30,10.60
2014,04,30,06,31,10.60
2014,04,30,06,32,10.60
2014,04,30,06,33,10.60
2014,04,30,06,34,10.60
2014,04,30,06,35,10.60
2014,04,30,06,36,10.60
2014,04,30,06,37,10.60
2014,04,30,06,38,10.60
2014,04,30,06,39,10.60
2014,04,30,06,40,10.60
2014,04,30,06,41,10.60
2014,04,30,06,42,10.60
2014,04,30,06,43,10.60
2014,04,30,06,44,10.60
2014,04,30,06,45,10.60
2014,04,30,06,46,10.60
2014,04,30,06,47,10.60
2014,04,30,06,48,10.60
2014,04,30,06,49,10.60
2014,04,30,06,50,10.60
2014,04,30,06,51,10.60
2014,04,30,06,52,10.60
2014,04,30,06,53,10.60
2014,04,30,06,54,10.60
2014,04,30,06,55,10.60
2014,04,30,06,56,10.50
2014,04,30,06,57,10.40
2014,04,30,06,58,10.40
2014,04,30,06,59,10.40
2014,04,30,07,00,10.40
2014,04,30,07,01,10.40
2014,04,30,07,02,10.30
2014,04,30,07,03,10.30
2014,04,30,07,04,10.30
2014,04,30,07,05,10.20
2014,04,30,07,06,10.20
2014,04,30,07,07,10.20
2014,04,30,07,08,10.20
2014,04,30,07,09,10.20
2014,04,30,07,10,10.20
2014,04,30,07,11,10.30
2014,04,30,07,12,10.30
2014,04,30,07,13,10.30
2014,04,30,07,14,10.40
2014,04,30,07,15,10.40
2014,04,30,07,16,10.40
2014,04,30,07,17,10.50
2014,04,30,07,18,10.60
2014,04,30,07,19,10.60
2014,04,30,07,20,10.60
2014,04,30,07,21,10.70
2014,04,30,07,22,10.80
2014,04,30,07,23,10.90
2014,04,30,07,24,10.90
2014,04,30,07,25,11.00
2014,04,30,07,26,11.10
2014,04,30,07,27,11.10
2014,04,30,07,28,11.10
2014,04,30,07,29,11.20
2014,04,30,07,30,11.20
2014,04,30,07,31,11.30
2014,04,30,07,32,11.40
2014,04,30,07,33,11.40
2014,04,30,07,34,11.40
2014,04,30,07,35,11.50
2014,04,30,07,36,11.60
2014,04,30,07,37,11.60
2014,04,30,07,38,11.60
2014,04,30,07,39,11.70
2014,04,30,07,40,11.70
2014,04,30,07,41,11.80
2014,04,30,07,42,11.80
2014,04,30,07,43,11.80
2014,04,30,07,44,11.80
2014,04,30,07,45,11.90
2014,04,30,07,46,11.90
2014,04,30,07,47,12.00
2014,04,30,07,48,12.00
2014,04,30,07,49,12.00
2014,04,30,07,50,12.10
2014,04,30,07,51,12.10
2014,04,30,07,52,12.10
2014,04,30,07,53,12.20
2014,04,30,07,54,12.20
2014,04,30,07,55,12.20
2014,04,30,07,56,12.20
2014,04,30,07,57,12.30
2014,04,30,07,58,12.30
2014,04,30,07,59,12.30
2014,04,30,08,00,12.30
2014,04,30,08,01,12.40
2014,04,30,08,02,12.50
2014,04,30,08,03,12.50
2014,04,30,08,04,12.60
2014,04,30,08,05,12.60
2014,04,30,08,06,12.70
2014,04,30,08,07,12.80
2014,04,30,08,08,12.80
2014,04,30,08,09,12.80
2014,04,30,08,10,12.90
2014,04,30,08,11,12.90
2014,04,30,08,12,13.00
2014,04,30,08,13,13.00
2014,04,30,08,14,13.10
2014,04,30,08,15,13.10
2014,04,30,08,16,13.20
2014,04,30,08,17,13.30
2014,04,30,08,18,13.30
2014,04,30,08,19,13.30
2014,04,30,08,20,13.30
2014,04,30,08,21,13.30
2014,04,30,08,22,13.30
2014,04,30,08,23,13.40
2014,04,30,08,24,13.40
2014,04,30,08,25,13.50
2014,04,30,08,26,13.50
2014,04,30,08,27,13.50
2014,04,30,08,28,13.50
2014,04,30,08,29,13.50
2014,04,30,08,30,13.50
2014,04,30,08,31,13.50
2014,04,30,08,32,13.50
2014,04,30,08,33,13.50
2014,04,30,08,34,13.50
2014,04,30,08,35,13.50
2014,04,30,08,36,13.50
2014,04,30,08,37,13.60
2014,04,30,08,38,13.60
2014,04,30,08,39,13.60
2014,04,30,08,40,13.70
2014,04,30,08,41,13.70
2014,04,30,08,42,13.70
2014,04,30,08,43,13.70
2014,04,30,08,44,13.80
2014,04,30,08,45,13.80
2014,04,30,08,46,13.90
2014,04,30,08,47,13.90
2014,04,30,08,48,13.90
2014,04,30,08,49,14.00
2014,04,30,08,50,14.00
2014,04,30,08,51,14.00
2014,04,30,08,52,14.00
2014,04,30,08,53,14.00
2014,04,30,08,54,14.10
2014,04,30,08,55,14.10
2014,04,30,08,56,14.10
2014,04,30,08,57,14.10
2014,04,30,08,58,14.10
2014,04,30,08,59,14.10
2014,04,30,09,00,14.20
2014,04,30,09,01,14.20
2014,04,30,09,02,14.20
2014,04,30,09,03,14.20
2014,04,30,09,04,14.20
2014,04,30,09,05,14.20
2014,04,30,09,06,14.30
2014,04,30,09,07,14.30
2014,04,30,09,08,14.50
2014,04,30,09,09,14.50
2014,04,30,09,10,14.60
2014,04,30,09,11,14.60
2014,04,30,09,12,14.60
2014,04,30,09,13,14.60
2014,04,30,09,14,14.60
2014,04,30,09,15,14.60
2014,04,30,09,16,14.70
2014,04,30,09,17,14.70
2014,04,30,09,18,14.70
2014,04,30,09,19,14.80
2014,04,30,09,20,14.80
2014,04,30,09,21,14.80
2014,04,30,09,22,14.80
2014,04,30,09,23,14.80
2014,04,30,09,24,14.80
2014,04,30,09,25,14.80
2014,04,30,09,26,14.80
2014,04,30,09,27,14.90
2014,04,30,09,28,14.90
2014,04,30,09,29,14.90
2014,04,30,09,30,14.90
2014,04,30,09,31,14.80
2014,04,30,09,32,14.80
2014,04,30,09,33,14.80
2014,04,30,09,34,14.80
2014,04,30,09,35,14.80
2014,04,30,09,36,14.80
2014,04,30,09,37,14.80
2014,04,30,09,38,14.80
2014,04,30,09,39,14.80
2014,04,30,09,40,14.80
2014,04,30,09,41,14.80
2014,04,30,09,42,14.80
2014,04,30,09,43,14.80
2014,04,30,09,44,14.90
2014,04,30,09,45,14.90
2014,04,30,09,46,14.90
2014,04,30,09,47,14.90
2014,04,30,09,48,15.00
2014,04,30,09,49,15.10
2014,04,30,09,50,15.10
2014,04,30,09,51,15.20
2014,04,30,09,52,15.30
2014,04,30,09,53,15.30
2014,04,30,09,54,15.30
2014,04,30,09,55,15.30
2014,04,30,09,56,15.30
2014,04,30,09,57,15.30
2014,04,30,09,58,15.30
2014,04,30,09,59,15.30
2014,04,30,10,00,15.30
2014,04,30,10,01,15.30
2014,04,30,10,02,15.40
2014,04,30,10,03,15.40
2014,04,30,10,04,15.50
2014,04,30,10,05,15.50
2014,04,30,10,06,15.50
2014,04,30,10,07,15.50
2014,04,30,10,08,15.50
2014,04,30,10,09,15.60
2014,04,30,10,10,15.70
2014,04,30,10,11,15.80
2014,04,30,10,12,15.90
2014,04,30,10,13,16.10
2014,04,30,10,14,16.00
2014,04,30,10,15,15.90
2014,04,30,10,16,16.00
2014,04,30,10,17,16.10
2014,04,30,10,18,16.00
2014,04,30,10,19,15.90
2014,04,30,10,20,15.90
2014,04,30,10,21,15.90
2014,04,30,10,22,15.90
2014,04,30,10,23,15.90
2014,04,30,10,24,16.00
2014,04,30,10,25,16.10
2014,04,30,10,26,16.10
2014,04,30,10,27,16.20
2014,04,30,10,28,16.20
2014,04,30,10,29,16.30
2014,04,30,10,30,16.30
2014,04,30,10,31,16.30
2014,04,30,10,32,16.30
2014,04,30,10,33,16.30
2014,04,30,10,34,16.40
2014,04,30,10,35,16.40
2014,04,30,10,36,16.40
2014,04,30,10,37,16.40
2014,04,30,10,38,16.40
2014,04,30,10,39,16.40
2014,04,30,10,40,16.40
2014,04,30,10,41,16.40
2014,04,30,10,42,16.30
2014,04,30,10,43,16.40
2014,04,30,10,44,16.40
2014,04,30,10,45,16.40
2014,04,30,10,46,16.40
2014,04,30,10,47,16.40
2014,04,30,10,48,16.40
2014,04,30,10,49,16.40
2014,04,30,10,50,16.40
2014,04,30,10,51,16.30
2014,04,30,10,52,16.20
2014,04,30,10,53,16.20
2014,04,30,10,54,16.20
2014,04,30,10,55,16.20
2014,04,30,10,56,16.20
2014,04,30,10,57,16.20
2014,04,30,10,58,16.20
2014,04,30,10,59,16.30
2014,04,30,11,00,16.40
2014,04,30,11,01,16.40
2014,04,30,11,02,16.30
2014,04,30,11,03,16.30
2014,04,30,11,04,16.30
2014,04,30,11,05,16.40
2014,04,30,11,06,16.40
2014,04,30,11,07,16.40
2014,04,30,11,08,16.50
2014,04,30,11,09,16.60
2014,04,30,11,10,16.60
2014,04,30,11,11,16.60
2014,04,30,11,12,16.60
2014,04,30,11,13,16.70
2014,04,30,11,14,16.80
2014,04,30,11,15,16.90
2014,04,30,11,16,16.90
2014,04,30,11,17,17.00
2014,04,30,11,18,16.90
2014,04,30,11,19,16.90
2014,04,30,11,20,16.90
2014,04,30,11,21,16.90
2014,04,30,11,22,16.90
2014,04,30,11,23,17.00
2014,04,30,11,24,17.00
2014,04,30,11,25,17.00
2014,04,30,11,26,17.10
2014,04,30,11,27,17.20
2014,04,30,11,28,17.30
2014,04,30,11,29,17.30
2014,04,30,11,30,17.40
2014,04,30,11,31,17.50
2014,04,30,11,32,17.60
2014,04,30,11,33,17.70
2014,04,30,11,34,17.80
2014,04,30,11,35,17.90
2014,04,30,11,36,18.10
2014,04,30,11,37,18.30
2014,04,30,11,38,18.50
2014,04,30,11,39,18.60
2014,04,30,11,40,18.60
2014,04,30,11,41,18.60
2014,04,30,11,42,18.60
2014,04,30,11,43,18.50
2014,04,30,11,44,18.20
2014,04,30,11,45,18.20
2014,04,30,11,46,18.20
2014,04,30,11,47,18.20
2014,04,30,11,48,18.20
2014,04,30,11,49,18.20
2014,04,30,11,50,18.20
2014,04,30,11,51,18.30
2014,04,30,11,52,18.50
2014,04,30,11,53,18.60
2014,04,30,11,54,18.70
2014,04,30,11,55,18.80
2014,04,30,11,56,18.80
2014,04,30,11,57,18.80
2014,04,30,11,58,18.80
2014,04,30,11,59,18.90
2014,04,30,12,00,18.90
2014,04,30,12,01,19.00
2014,04,30,12,02,18.90
2014,04,30,12,03,18.90
2014,04,30,12,04,18.90
2014,04,30,12,05,18.90
2014,04,30,12,06,18.90
2014,04,30,12,07,18.80
2014,04,30,12,08,18.70
2014,04,30,12,09,18.70
2014,04,30,12,10,18.80
2014,04,30,12,11,18.90
2014,04,30,12,12,18.80
2014,04,30,12,13,18.70
2014,04,30,12,14,18.60
2014,04,30,12,15,18.60
2014,04,30,12,16,18.50
2014,04,30,12,17,18.50
2014,04,30,12,18,18.40
2014,04,30,12,19,18.50
2014,04,30,12,20,18.50
2014,04,30,12,21,18.60
2014,04,30,12,22,18.60
2014,04,30,12,23,18.70
2014,04,30,12,24,18.70
2014,04,30,12,25,18.60
2014,04,30,12,26,18.60
2014,04,30,12,27,18.60
2014,04,30,12,28,18.70
2014,04,30,12,29,18.90
2014,04,30,12,30,19.00
2014,04,30,12,31,19.10
2014,04,30,12,32,19.10
2014,04,30,12,33,19.10
2014,04,30,12,34,19.10
2014,04,30,12,35,19.10
2014,04,30,12,36,19.10
2014,04,30,12,37,19.10
2014,04,30,12,38,19.20
2014,04,30,12,39,19.30
2014,04,30,12,40,19.40
2014,04,30,12,41,19.40
2014,04,30,12,42,19.30
2014,04,30,12,43,19.30
2014,04,30,12,44,19.40
2014,04,30,12,45,19.40
2014,04,30,12,46,19.50
2014,04,30,12,47,19.60
2014,04,30,12,48,19.50
2014,04,30,12,49,19.50
2014,04,30,12,50,19.60
2014,04,30,12,51,19.60
2014,04,30,12,52,19.70
2014,04,30,12,53,19.70
2014,04,30,12,54,19.80
2014,04,30,12,55,19.90
2014,04,30,12,56,20.10
2014,04,30,12,57,20.20
2014,04,30,12,58,20.30
2014,04,30,12,59,20.30
2014,04,30,13,00,20.30
2014,04,30,13,01,20.30
2014,04,30,13,02,20.30
2014,04,30,13,03,20.40
2014,04,30,13,04,20.40
2014,04,30,13,05,20.40
2014,04,30,13,06,20.30
2014,04,30,13,07,20.30
2014,04,30,13,08,20.20
2014,04,30,13,09,20.30
2014,04,30,13,10,20.30
2014,04,30,13,11,20.30
2014,04,30,13,12,20.20
2014,04,30,13,13,20.10
2014,04,30,13,14,20.10
2014,04,30,13,15,19.90
2014,04,30,13,16,19.90
2014,04,30,13,17,19.90
2014,04,30,13,18,19.90
2014,04,30,13,19,19.90
2014,04,30,13,20,19.90
2014,04,30,13,21,20.00
2014,04,30,13,22,20.10
2014,04,30,13,23,20.20
2014,04,30,13,24,20.10
2014,04,30,13,25,20.10
2014,04,30,13,26,20.00
2014,04,30,13,27,19.90
2014,04,30,13,28,19.90
2014,04,30,13,29,19.90
2014,04,30,13,30,20.00
2014,04,30,13,31,20.10
2014,04,30,13,32,20.10
2014,04,30,13,33,20.10
2014,04,30,13,34,20.20
2014,04,30,13,35,20.30
2014,04,30,13,36,20.30
2014,04,30,13,37,20.20
2014,04,30,13,38,20.20
2014,04,30,13,39,20.10
2014,04,30,13,40,20.00
2014,04,30,13,41,19.90
2014,04,30,13,42,19.90
2014,04,30,13,43,20.00
2014,04,30,13,44,20.10
2014,04,30,13,45,20.20
2014,04,30,13,46,20.20
2014,04,30,13,47,20.20
2014,04,30,13,48,20.20
2014,04,30,13,49,20.30
2014,04,30,13,50,20.30
2014,04,30,13,51,20.20
2014,04,30,13,52,20.10
2014,04,30,13,53,20.10
2014,04,30,13,54,20.10
2014,04,30,13,55,20.10
2014,04,30,13,56,20.20
2014,04,30,13,57,20.20
2014,04,30,13,58,20.20
2014,04,30,13,59,20.20
2014,04,30,14,00,20.40
2014,04,30,14,01,20.50
2014,04,30,14,02,20.60
2014,04,30,14,03,20.70
2014,04,30,14,04,20.80
2014,04,30,14,05,20.80
2014,04,30,14,06,20.80
2014,04,30,14,07,20.80
2014,04,30,14,08,20.80
2014,04,30,14,09,20.90
2014,04,30,14,10,21.00
2014,04,30,14,11,21.00
2014,04,30,14,12,21.00
2014,04,30,14,13,21.00
2014,04,30,14,14,21.10
2014,04,30,14,15,21.10
2014,04,30,14,16,21.00
2014,04,30,14,17,21.00
2014,04,30,14,18,21.10
2014,04,30,14,19,21.20
2014,04,30,14,20,21.20
2014,04,30,14,21,21.20
2014,04,30,14,22,21.30
2014,04,30,14,23,21.30
2014,04,30,14,24,21.30
2014,04,30,14,25,21.30
2014,04,30,14,26,21.20
2014,04,30,14,27,21.00
2014,04,30,14,28,21.00
2014,04,30,14,29,21.00
2014,04,30,14,30,21.10
2014,04,30,14,31,21.10
2014,04,30,14,32,21.00
2014,04,30,14,33,21.00
2014,04,30,14,34,21.00
2014,04,30,14,35,21.10
2014,04,30,14,36,21.00
2014,04,30,14,37,21.00
2014,04,30,14,38,21.00
2014,04,30,14,39,20.90
2014,04,30,14,40,20.90
2014,04,30,14,41,21.00
2014,04,30,14,42,21.10
2014,04,30,14,43,21.20
2014,04,30,14,44,21.30
2014,04,30,14,45,21.30
2014,04,30,14,46,21.30
2014,04,30,14,47,21.30
2014,04,30,14,48,21.30
2014,04,30,14,49,21.30
2014,04,30,14,50,21.40
2014,04,30,14,51,21.50
2014,04,30,14,52,21.60
2014,04,30,14,53,21.50
2014,04,30,14,54,21.40
2014,04,30,14,55,21.30
2014,04,30,14,56,21.40
2014,04,30,14,57,21.50
2014,04,30,14,58,21.50
2014,04,30,14,59,21.40
2014,04,30,15,00,21.40
2014,04,30,15,01,21.40
2014,04,30,15,02,21.40
2014,04,30,15,03,21.40
2014,04,30,15,04,21.50
2014,04,30,15,05,21.60
2014,04,30,15,06,21.60
2014,04,30,15,07,21.60
2014,04,30,15,08,21.60
2014,04,30,15,09,21.60
2014,04,30,15,10,21.50
2014,04,30,15,11,21.40
2014,04,30,15,12,21.40
2014,04,30,15,13,21.30
2014,04,30,15,14,21.30
2014,04,30,15,15,21.30
2014,04,30,15,16,21.30
2014,04,30,15,17,21.20
2014,04,30,15,18,21.00
2014,04,30,15,19,21.00
2014,04,30,15,20,21.00
2014,04,30,15,21,21.10
2014,04,30,15,22,21.20
2014,04,30,15,23,21.30
2014,04,30,15,24,21.30
2014,04,30,15,25,21.30
2014,04,30,15,26,21.30
2014,04,30,15,27,21.30
2014,04,30,15,28,21.30
2014,04,30,15,29,21.30
2014,04,30,15,30,21.30
2014,04,30,15,31,21.30
2014,04,30,15,32,21.30
2014,04,30,15,33,21.30
2014,04,30,15,34,21.30
2014,04,30,15,35,21.30
2014,04,30,15,36,21.30
2014,04,30,15,37,21.40
2014,04,30,15,38,21.40
2014,04,30,15,39,21.30
2014,04,30,15,40,21.30
2014,04,30,15,41,21.30
2014,04,30,15,42,21.30
2014,04,30,15,43,21.20
2014,04,30,15,44,21.20
2014,04,30,15,45,21.30
2014,04,30,15,46,21.30
2014,04,30,15,47,21.30
2014,04,30,15,48,21.40
2014,04,30,15,49,21.50
2014,04,30,15,50,21.60
2014,04,30,15,51,21.60
2014,04,30,15,52,21.60
2014,04,30,15,53,21.60
2014,04,30,15,54,21.60
2014,04,30,15,55,21.60
2014,04,30,15,56,21.60
2014,04,30,15,57,21.50
2014,04,30,15,58,21.40
2014,04,30,15,59,21.30
2014,04,30,16,00,21.30
2014,04,30,16,01,21.30
2014,04,30,16,02,21.30
2014,04,30,16,03,21.30
2014,04,30,16,04,21.30
2014,04,30,16,05,21.30
2014,04,30,16,06,21.40
2014,04,30,16,07,21.60
2014,04,30,16,08,21.60
2014,04,30,16,09,21.60
2014,04,30,16,10,21.60
2014,04,30,16,11,21.60
2014,04,30,16,12,21.60
2014,04,30,16,13,21.60
2014,04,30,16,14,21.60
2014,04,30,16,15,21.60
2014,04,30,16,16,21.70
2014,04,30,16,17,21.70
2014,04,30,16,18,21.80
2014,04,30,16,19,21.90
2014,04,30,16,20,22.00
2014,04,30,16,21,22.10
2014,04,30,16,22,22.10
2014,04,30,16,23,22.20
2014,04,30,16,24,22.30
2014,04,30,16,25,22.30
2014,04,30,16,26,22.30
2014,04,30,16,27,22.30
2014,04,30,16,28,22.30
2014,04,30,16,29,22.20
2014,04,30,16,30,22.10
2014,04,30,16,31,22.00
2014,04,30,16,32,21.90
2014,04,30,16,33,21.70
2014,04,30,16,34,21.60
2014,04,30,16,35,21.50
2014,04,30,16,36,21.40
2014,04,30,16,37,21.20
2014,04,30,16,38,21.10
2014,04,30,16,39,21.00
2014,04,30,16,40,20.90
2014,04,30,16,41,20.90
2014,04,30,16,42,20.80
2014,04,30,16,43,20.80
2014,04,30,16,44,20.80
2014,04,30,16,45,20.80
2014,04,30,16,46,20.80
2014,04,30,16,47,20.70
2014,04,30,16,48,20.70
2014,04,30,16,49,20.70
2014,04,30,16,50,20.80
2014,04,30,16,51,20.80
2014,04,30,16,52,20.80
2014,04,30,16,53,20.90
2014,04,30,16,54,20.90
2014,04,30,16,55,20.90
2014,04,30,16,56,20.90
2014,04,30,16,57,20.90
2014,04,30,16,58,20.90
2014,04,30,16,59,21.00
2014,04,30,17,00,21.00
2014,04,30,17,01,21.10
2014,04,30,17,02,21.20
2014,04,30,17,03,21.30
2014,04,30,17,04,21.30
2014,04,30,17,05,21.30
2014,04,30,17,06,21.40
2014,04,30,17,07,21.40
2014,04,30,17,08,21.40
2014,04,30,17,09,21.40
2014,04,30,17,10,21.40
2014,04,30,17,11,21.40
2014,04,30,17,12,21.30
2014,04,30,17,13,21.30
2014,04,30,17,14,21.10
2014,04,30,17,15,21.00
2014,04,30,17,16,20.90
2014,04,30,17,17,20.80
2014,04,30,17,18,20.80
2014,04,30,17,19,20.80